This is the latest recevied weather packets stored in our database for station/object KQ4UWH. If no packets are shown the sender has not sent any weather packets the latest 10 day(s).
| Time | Temp. | Humidity | Pressure | Rain* | Wind** | Luminosity | Snow |
|---|---|---|---|---|---|---|---|
| 1777587464 | 21.11° C | 48% | 1239.7 hPa | 0 mm | - | 114 W/m² | - |
| 1777587162 | 21.11° C | 47% | 1239.7 hPa | 0 mm | - | 126 W/m² | - |
| 1777586857 | 21.67° C | 46% | 1239.7 hPa | 0 mm | - | 124 W/m² | - |
| 1777586553 | 21.67° C | 45% | 1239.7 hPa | 0 mm | - | 147 W/m² | - |
| 1777586249 | 22.22° C | 44% | 1239.7 hPa | 0 mm | - | 222 W/m² | - |
| 1777585946 | 21.67° C | 44% | 1239.7 hPa | 0 mm | - | 222 W/m² | - |
| 1777585642 | 22.22° C | 43% | 1239.7 hPa | 0 mm | - | 193 W/m² | - |
| 1777585337 | 22.22° C | 46% | 1239.7 hPa | 0 mm | - | 260 W/m² | - |
| 1777585032 | 22.22° C | 44% | 1239.7 hPa | 0 mm | - | 178 W/m² | - |
| 1777584728 | 22.78° C | 44% | 1239.7 hPa | 0 mm | - | 202 W/m² | - |
| 1777584427 | 22.78° C | 43% | 1239.7 hPa | 0 mm | - | 282 W/m² | - |
| 1777584123 | 22.78° C | 44% | 1239.7 hPa | 0 mm | - | 297 W/m² | - |
| 1777583823 | 22.78° C | 43% | 1239.7 hPa | 0 mm | - | 334 W/m² | - |
| 1777583518 | 22.78° C | 47% | 1239.7 hPa | 0 mm | - | 410 W/m² | - |
| 1777583217 | 22.78° C | 46% | 1239.7 hPa | 0 mm | - | 422 W/m² | - |
| 1777582912 | 22.22° C | 47% | 1239.7 hPa | 0 mm | - | 354 W/m² | - |
| 1777582610 | 22.22° C | 45% | 1239.7 hPa | 0 mm | - | 435 W/m² | - |
| 1777582305 | 22.22° C | 46% | 1239.7 hPa | 0 mm | - | 302 W/m² | - |
| 1777582003 | 22.22° C | 47% | 1239.7 hPa | 0 mm | - | 272 W/m² | - |
| 1777581698 | 22.22° C | 49% | 1239.7 hPa | 0 mm | - | 401 W/m² | - |
| 1777581392 | 22.22° C | 47% | 1239.7 hPa | 0 mm | - | 310 W/m² | - |
| 1777581087 | 22.22° C | 48% | 1239.7 hPa | 0 mm | - | 333 W/m² | - |
| 1777580786 | 22.78° C | 46% | 1239.7 hPa | 0 mm | - | 434 W/m² | - |
| 1777580483 | 22.22° C | 49% | 1239.7 hPa | 0 mm | - | 512 W/m² | - |
| 1777580183 | 21.67° C | 53% | 1239.7 hPa | 0 mm | - | 463 W/m² | - |
* Rain latest hour (hover to see other rain measurements)
** Current wind speed in m/s (hover to see current wind gust speed)